Mpanda Airport

Jump to: basic info | weather | comments

Related pages: nearby airports | nearby navaids | notams | map

Basic information (top)

Codes: HTMP
Location: lon -6.350000, lat 31.083000, elev 3,520 ft / 1,073 m msl
Status: small_airport

Weather (top)

Current conditions for Sumbawanga Airport 103nm (191km) SSE (rec'd 2015/02/27 18:00Z):

HTSU 271800Z 00000KT 9999 FEW020 23/13 Q1019

Airport forecast for Julius Nyerere International Airport 485nm (899km) E (rec'd 2015/02/27 18:00Z):

TAF HTDA 271700Z 2718/2824 05010KT 9999 SCT022 
     FM272100 03010KT BKN020 
      BECMG 2809/2812 33010KT SCT026 BKN080 
     FM281500 03015KT 9999 FEW024 SCT070

Latest comments (top)

re: Uwanja wa ndege Mpanda: Thanks God Mpanda is on the right path, ... [read]

Uwanja wa ndege Mpanda: Uwanja ni mzuri saana, [read]

matengenezo: uwanja ukikamilika utakuwa mzuri.mmejitahidi. [read]

More... (top)

See also NOTAMs and nearby airports and navaids, or visit the Mpanda Airport page at the main OurAirports website..